Time,TemperatureF,DewpointF,PressureIn,WindDirection,WindDirectionDegrees,WindSpeedMPH,WindSpeedGustMPH,Humidity,HourlyPrecipIn,Conditions,Clouds,dailyrainin,SoftwareType,DateUTC
2013-08-23 00:01:00,66.1,63.4,29.92,ENE,68,0.0,0.0,91,0.00,,,0.00,WUHU216HW,2013-08-23 04:01:00,
2013-08-23 00:06:00,66.1,63.4,29.92,ENE,68,0.0,0.0,91,0.00,,,0.00,WUHU216HW,2013-08-23 04:06:00,
2013-08-23 00:11:00,66.1,63.4,29.92,ENE,68,0.0,0.9,91,0.00,,,0.00,WUHU216HW,2013-08-23 04:11:00,
2013-08-23 00:16:00,65.9,63.2,29.92,ENE,68,0.9,0.9,91,0.00,,,0.00,WUHU216HW,2013-08-23 04:16:00,
2013-08-23 00:21:00,65.9,63.2,29.92,ENE,68,0.0,0.9,91,0.00,,,0.00,WUHU216HW,2013-08-23 04:21:00,
2013-08-23 00:26:00,65.9,63.2,29.92,ENE,68,0.0,0.4,91,0.00,,,0.00,WUHU216HW,2013-08-23 04:26:00,
2013-08-23 00:31:00,65.9,63.2,29.92,ENE,68,0.0,0.0,91,0.00,,,0.00,WUHU216HW,2013-08-23 04:31:00,
2013-08-23 00:36:00,65.9,63.2,29.92,ENE,68,0.0,0.0,91,0.00,,,0.00,WUHU216HW,2013-08-23 04:36:00,
2013-08-23 00:41:00,65.9,63.2,29.92,ENE,68,0.0,0.0,91,0.00,,,0.00,WUHU216HW,2013-08-23 04:41:00,
2013-08-23 00:46:00,65.9,63.2,29.91,ENE,68,0.0,0.0,91,0.00,,,0.00,WUHU216HW,2013-08-23 04:46:00,
2013-08-23 00:51:00,65.7,62.7,29.91,ENE,68,0.0,0.0,90,0.00,,,0.00,WUHU216HW,2013-08-23 04:51:00,
2013-08-23 00:56:00,65.5,62.6,29.91,ENE,68,0.0,0.0,90,0.00,,,0.00,WUHU216HW,2013-08-23 04:56:00,
2013-08-23 01:01:00,65.5,62.6,29.91,ENE,68,0.0,0.0,90,0.00,,,0.00,WUHU216HW,2013-08-23 05:01:00,
2013-08-23 01:06:00,65.3,62.4,29.91,ENE,68,0.0,0.0,90,0.00,,,0.00,WUHU216HW,2013-08-23 05:06:00,
2013-08-23 01:11:00,65.3,62.4,29.91,ENE,68,0.0,0.0,90,0.00,,,0.00,WUHU216HW,2013-08-23 05:11:00,
2013-08-23 01:16:00,65.3,62.4,29.91,ENE,68,0.0,0.0,90,0.00,,,0.00,WUHU216HW,2013-08-23 05:16:00,
2013-08-23 01:21:00,65.2,62.2,29.91,ENE,68,0.0,0.0,90,0.00,,,0.00,WUHU216HW,2013-08-23 05:21:00,
2013-08-23 01:26:00,65.2,62.2,29.90,ENE,68,0.0,0.0,90,0.00,,,0.00,WUHU216HW,2013-08-23 05:26:00,
2013-08-23 01:31:00,65.2,62.2,29.90,ENE,68,0.0,0.0,90,0.00,,,0.00,WUHU216HW,2013-08-23 05:31:00,
2013-08-23 01:36:00,65.0,62.0,29.90,ENE,68,0.0,0.0,90,0.00,,,0.00,WUHU216HW,2013-08-23 05:36:00,
2013-08-23 01:41:00,64.8,61.9,29.90,ENE,68,0.7,0.7,90,0.00,,,0.00,WUHU216HW,2013-08-23 05:41:00,
2013-08-23 01:46:00,64.8,61.9,29.90,ENE,68,0.0,0.7,90,0.00,,,0.00,WUHU216HW,2013-08-23 05:46:00,
2013-08-23 01:51:00,64.6,61.8,29.90,ENE,68,0.0,0.7,90,0.00,,,0.00,WUHU216HW,2013-08-23 05:51:00,
2013-08-23 01:56:00,64.6,61.8,29.90,ENE,68,0.0,0.0,90,0.00,,,0.00,WUHU216HW,2013-08-23 05:56:00,
2013-08-23 02:01:00,64.4,61.6,29.90,ENE,68,0.0,0.0,90,0.00,,,0.00,WUHU216HW,2013-08-23 06:01:00,
2013-08-23 02:06:00,64.4,61.6,29.89,ENE,68,0.0,0.0,90,0.00,,,0.00,WUHU216HW,2013-08-23 06:06:00,
2013-08-23 02:11:00,64.4,61.6,29.90,ENE,68,0.0,0.0,90,0.00,,,0.00,WUHU216HW,2013-08-23 06:11:00,
2013-08-23 02:16:00,64.4,61.6,29.89,ENE,68,0.0,0.0,90,0.00,,,0.00,WUHU216HW,2013-08-23 06:16:00,
2013-08-23 02:21:00,64.4,61.6,29.89,ENE,68,0.0,0.0,90,0.00,,,0.00,WUHU216HW,2013-08-23 06:21:00,
2013-08-23 02:26:00,64.1,61.2,29.89,ENE,68,0.0,0.0,90,0.00,,,0.00,WUHU216HW,2013-08-23 06:26:00,
2013-08-23 02:31:00,64.1,61.5,29.89,ENE,68,0.0,0.0,91,0.00,,,0.00,WUHU216HW,2013-08-23 06:31:00,
2013-08-23 02:36:00,64.1,61.5,29.89,ENE,68,0.0,0.0,91,0.00,,,0.00,WUHU216HW,2013-08-23 06:36:00,
2013-08-23 02:41:00,63.9,61.3,29.89,ENE,68,0.4,1.3,91,0.00,,,0.00,WUHU216HW,2013-08-23 06:41:00,
2013-08-23 02:46:00,64.1,61.5,29.89,SW,225,0.7,1.3,91,0.00,,,0.00,WUHU216HW,2013-08-23 06:46:00,
2013-08-23 02:51:00,64.1,61.5,29.88,WNW,293,0.0,1.1,91,0.00,,,0.00,WUHU216HW,2013-08-23 06:51:00,
2013-08-23 02:56:00,64.1,61.5,29.88,WNW,293,0.0,1.1,91,0.00,,,0.00,WUHU216HW,2013-08-23 06:56:00,
2013-08-23 03:01:00,64.1,61.7,29.88,WNW,293,0.4,1.1,92,0.00,,,0.00,WUHU216HW,2013-08-23 07:01:00,
2013-08-23 03:06:00,64.1,61.7,29.88,NW,315,0.0,1.1,92,0.00,,,0.00,WUHU216HW,2013-08-23 07:06:00,
2013-08-23 03:11:00,63.9,61.6,29.88,WNW,293,0.0,1.1,92,0.00,,,0.00,WUHU216HW,2013-08-23 07:11:00,
2013-08-23 03:16:00,63.9,61.6,29.88,SSW,203,0.0,0.2,92,0.00,,,0.00,WUHU216HW,2013-08-23 07:16:00,
2013-08-23 03:21:00,63.9,61.6,29.88,SW,225,0.0,0.2,92,0.00,,,0.00,WUHU216HW,2013-08-23 07:21:00,
2013-08-23 03:26:00,63.7,61.4,29.88,NW,315,0.4,1.1,92,0.00,,,0.00,WUHU216HW,2013-08-23 07:26:00,
2013-08-23 03:31:00,63.7,61.4,29.88,NW,315,0.0,1.1,92,0.00,,,0.00,WUHU216HW,2013-08-23 07:31:00,
2013-08-23 03:36:00,63.7,61.4,29.88,WSW,248,0.4,0.9,92,0.00,,,0.00,WUHU216HW,2013-08-23 07:36:00,
2013-08-23 03:41:00,63.7,61.4,29.88,WSW,248,0.4,0.9,92,0.00,,,0.00,WUHU216HW,2013-08-23 07:41:00,
2013-08-23 03:46:00,63.7,61.4,29.88,WSW,248,0.0,0.4,92,0.00,,,0.00,WUHU216HW,2013-08-23 07:46:00,
2013-08-23 03:51:00,63.7,61.4,29.88,SW,225,0.9,0.9,92,0.00,,,0.00,WUHU216HW,2013-08-23 07:51:00,
2013-08-23 03:56:00,63.5,61.2,29.87,North,0,0.0,0.9,92,0.00,,,0.00,WUHU216HW,2013-08-23 07:56:00,
2013-08-23 04:01:00,63.4,61.0,29.87,ENE,68,0.2,0.9,92,0.00,,,0.00,WUHU216HW,2013-08-23 08:01:00,
2013-08-23 04:06:00,63.4,61.0,29.87,ENE,68,0.0,0.2,92,0.00,,,0.00,WUHU216HW,2013-08-23 08:06:00,
2013-08-23 04:11:00,63.2,60.8,29.87,ENE,68,0.0,0.0,92,0.00,,,0.00,WUHU216HW,2013-08-23 08:11:00,
2013-08-23 04:16:00,63.2,60.8,29.87,ENE,68,0.0,0.0,92,0.00,,,0.00,WUHU216HW,2013-08-23 08:16:00,
2013-08-23 04:21:00,63.2,60.8,29.87,ENE,68,0.0,0.0,92,0.00,,,0.00,WUHU216HW,2013-08-23 08:21:00,
2013-08-23 04:26:00,63.0,60.7,29.87,ENE,68,0.0,0.9,92,0.00,,,0.00,WUHU216HW,2013-08-23 08:26:00,
2013-08-23 04:31:00,63.0,60.7,29.87,ENE,68,0.0,0.9,92,0.00,,,0.00,WUHU216HW,2013-08-23 08:31:00,
2013-08-23 04:36:00,63.0,60.7,29.87,ENE,68,0.0,0.0,92,0.00,,,0.00,WUHU216HW,2013-08-23 08:36:00,
2013-08-23 04:41:00,63.0,60.7,29.87,ENE,68,0.0,0.0,92,0.00,,,0.00,WUHU216HW,2013-08-23 08:41:00,
2013-08-23 04:46:00,63.0,60.7,29.87,ENE,68,0.0,0.0,92,0.00,,,0.00,WUHU216HW,2013-08-23 08:46:00,
2013-08-23 04:51:00,63.2,60.8,29.87,ENE,68,0.0,0.0,92,0.00,,,0.00,WUHU216HW,2013-08-23 08:51:00,
2013-08-23 04:56:00,63.2,60.8,29.87,ENE,68,0.0,0.0,92,0.00,,,0.00,WUHU216HW,2013-08-23 08:56:00,
2013-08-23 05:01:00,63.2,60.8,29.87,ENE,68,0.9,1.1,92,0.00,,,0.00,WUHU216HW,2013-08-23 09:01:00,
2013-08-23 05:06:00,63.0,60.7,29.87,ENE,68,0.0,1.1,92,0.00,,,0.00,WUHU216HW,2013-08-23 09:06:00,
2013-08-23 05:11:00,63.0,60.7,29.87,ENE,68,0.0,1.1,92,0.00,,,0.00,WUHU216HW,2013-08-23 09:11:00,
2013-08-23 05:16:00,63.0,60.7,29.87,ENE,68,0.0,0.0,92,0.00,,,0.00,WUHU216HW,2013-08-23 09:16:00,
2013-08-23 05:21:00,63.0,60.7,29.87,ENE,68,0.0,0.0,92,0.00,,,0.00,WUHU216HW,2013-08-23 09:21:00,
2013-08-23 05:26:00,63.0,60.7,29.87,ENE,68,0.0,0.0,92,0.00,,,0.00,WUHU216HW,2013-08-23 09:26:00,
2013-08-23 05:31:00,63.0,61.0,29.87,WNW,293,0.9,1.1,93,0.00,,,0.00,WUHU216HW,2013-08-23 09:31:00,
2013-08-23 05:36:00,63.0,61.0,29.87,WNW,293,0.0,1.3,93,0.00,,,0.00,WUHU216HW,2013-08-23 09:36:00,
2013-08-23 05:41:00,63.0,60.7,29.87,West,270,0.0,1.3,92,0.00,,,0.00,WUHU216HW,2013-08-23 09:41:00,
2013-08-23 05:46:00,63.0,60.7,29.87,West,270,0.0,0.0,92,0.00,,,0.00,WUHU216HW,2013-08-23 09:46:00,
2013-08-23 05:51:00,63.0,60.7,29.87,West,270,0.0,0.0,92,0.00,,,0.00,WUHU216HW,2013-08-23 09:51:00,
2013-08-23 05:56:00,63.0,61.0,29.87,West,270,0.4,0.7,93,0.00,,,0.00,WUHU216HW,2013-08-23 09:56:00,
2013-08-23 06:01:00,63.0,61.0,29.87,West,270,0.4,0.7,93,0.00,,,0.00,WUHU216HW,2013-08-23 10:01:00,
2013-08-23 06:06:00,63.0,61.0,29.87,West,270,0.0,0.4,93,0.00,,,0.00,WUHU216HW,2013-08-23 10:06:00,
2013-08-23 06:11:00,63.0,61.0,29.87,WSW,248,0.0,0.4,93,0.00,,,0.00,WUHU216HW,2013-08-23 10:11:00,
2013-08-23 06:16:00,63.0,61.0,29.87,WSW,248,0.0,0.0,93,0.00,,,0.00,WUHU216HW,2013-08-23 10:16:00,
2013-08-23 06:21:00,63.0,61.0,29.88,WSW,248,0.0,0.0,93,0.00,,,0.00,WUHU216HW,2013-08-23 10:21:00,
2013-08-23 06:26:00,63.0,61.0,29.87,WSW,248,0.0,0.0,93,0.00,,,0.00,WUHU216HW,2013-08-23 10:26:00,
2013-08-23 06:31:00,63.0,61.0,29.87,WSW,248,0.0,0.0,93,0.00,,,0.00,WUHU216HW,2013-08-23 10:31:00,
2013-08-23 06:36:00,63.0,61.0,29.88,WSW,248,0.0,0.0,93,0.00,,,0.00,WUHU216HW,2013-08-23 10:36:00,
2013-08-23 06:41:00,63.0,61.0,29.88,WSW,248,0.0,0.0,93,0.00,,,0.00,WUHU216HW,2013-08-23 10:41:00,
2013-08-23 06:46:00,63.0,61.0,29.88,NNW,338,0.7,0.7,93,0.00,,,0.00,WUHU216HW,2013-08-23 10:46:00,
2013-08-23 06:51:00,63.0,61.0,29.88,NNW,338,0.0,0.7,93,0.00,,,0.00,WUHU216HW,2013-08-23 10:51:00,
2013-08-23 06:56:00,63.0,61.0,29.88,NNW,338,0.2,0.7,93,0.00,,,0.00,WUHU216HW,2013-08-23 10:56:00,
2013-08-23 07:01:00,63.0,61.0,29.88,NNW,338,0.2,1.1,93,0.00,,,0.00,WUHU216HW,2013-08-23 11:01:00,
2013-08-23 07:06:00,63.0,61.0,29.88,West,270,0.0,1.1,93,0.00,,,0.00,WUHU216HW,2013-08-23 11:06:00,
2013-08-23 07:12:00,63.0,61.0,29.89,North,0,0.4,0.4,93,0.00,,,0.00,WUHU216HW,2013-08-23 11:12:00,
2013-08-23 07:17:00,63.0,61.0,29.89,NNW,338,0.0,1.1,93,0.00,,,0.00,WUHU216HW,2013-08-23 11:17:00,
2013-08-23 07:22:00,63.0,61.0,29.89,NNW,338,0.0,1.1,93,0.00,,,0.00,WUHU216HW,2013-08-23 11:22:00,
2013-08-23 07:27:00,63.2,61.2,29.89,NNW,338,0.9,1.8,93,0.00,,,0.00,WUHU216HW,2013-08-23 11:27:00,
2013-08-23 07:32:00,63.2,61.2,29.90,NNW,338,0.0,1.8,93,0.08,,,0.00,WUHU216HW,2013-08-23 11:32:00,
2013-08-23 07:37:00,63.2,61.2,29.90,South,180,1.8,1.8,93,0.12,,,0.00,WUHU216HW,2013-08-23 11:37:00,
2013-08-23 07:42:00,63.2,61.2,29.90,South,180,0.0,1.8,93,0.13,,,0.00,WUHU216HW,2013-08-23 11:42:00,
2013-08-23 07:47:00,63.2,61.5,29.89,South,180,0.7,2.2,94,0.13,,,0.00,WUHU216HW,2013-08-23 11:47:00,
2013-08-23 07:52:00,63.2,61.5,29.90,South,180,0.0,2.2,94,0.13,,,0.00,WUHU216HW,2013-08-23 11:52:00,
2013-08-23 07:57:00,63.2,61.2,29.89,South,180,0.2,1.1,93,0.13,,,0.00,WUHU216HW,2013-08-23 11:57:00,
2013-08-23 08:02:00,63.4,61.4,29.89,NW,315,0.0,1.1,93,0.13,,,0.00,WUHU216HW,2013-08-23 12:02:00,
2013-08-23 08:07:00,63.4,61.4,29.89,WSW,248,0.4,1.1,93,0.13,,,0.00,WUHU216HW,2013-08-23 12:07:00,
2013-08-23 08:12:00,63.5,61.6,29.89,NW,315,1.3,1.3,93,0.13,,,0.00,WUHU216HW,2013-08-23 12:12:00,
2013-08-23 08:17:00,63.5,61.6,29.89,WNW,293,1.1,1.6,93,0.13,,,0.00,WUHU216HW,2013-08-23 12:17:00,
2013-08-23 08:22:00,63.7,61.8,29.89,NW,315,0.7,1.6,93,0.13,,,0.00,WUHU216HW,2013-08-23 12:22:00,
2013-08-23 08:27:00,63.7,62.0,29.89,NW,315,0.0,1.8,94,0.11,,,0.00,WUHU216HW,2013-08-23 12:27:00,
2013-08-23 08:32:00,63.7,62.0,29.89,WNW,293,0.4,1.8,94,0.02,,,0.00,WUHU216HW,2013-08-23 12:32:00,
2013-08-23 08:37:00,63.7,62.0,29.89,NNW,338,0.0,1.8,94,0.00,,,0.00,WUHU216HW,2013-08-23 12:37:00,
2013-08-23 08:42:00,63.7,62.0,29.89,WNW,293,0.7,1.8,94,0.00,,,0.00,WUHU216HW,2013-08-23 12:42:00,
2013-08-23 08:47:00,63.7,62.0,29.89,NW,315,0.0,1.3,94,0.00,,,0.00,WUHU216HW,2013-08-23 12:47:00,
2013-08-23 08:52:00,63.9,62.2,29.89,NNW,338,0.0,1.1,94,0.00,,,0.00,WUHU216HW,2013-08-23 12:52:00,
2013-08-23 08:57:00,64.3,62.6,29.89,NNE,23,0.0,1.1,94,0.00,,,0.00,WUHU216HW,2013-08-23 12:57:00,
2013-08-23 09:02:00,64.4,62.7,29.89,WSW,248,0.0,1.1,94,0.00,,,0.00,WUHU216HW,2013-08-23 13:02:00,
2013-08-23 09:07:00,64.8,63.1,29.89,West,270,0.0,1.1,94,0.00,,,0.00,WUHU216HW,2013-08-23 13:07:00,
2013-08-23 09:11:00,65.2,63.4,29.89,WSW,248,0.0,1.1,94,0.00,,,0.00,WUHU216HW,2013-08-23 13:11:00,
2013-08-23 09:16:00,65.3,63.5,29.89,West,270,0.4,1.1,94,0.00,,,0.00,WUHU216HW,2013-08-23 13:16:00,
2013-08-23 09:21:00,65.3,63.5,29.88,ENE,68,0.4,0.9,94,0.00,,,0.00,WUHU216HW,2013-08-23 13:21:00,
2013-08-23 09:26:00,65.3,63.5,29.88,ENE,68,0.0,0.9,94,0.00,,,0.00,WUHU216HW,2013-08-23 13:26:00,
2013-08-23 09:31:00,65.5,63.7,29.88,ENE,68,0.0,0.4,94,0.00,,,0.00,WUHU216HW,2013-08-23 13:31:00,
2013-08-23 09:36:00,65.5,63.7,29.88,ENE,68,0.0,0.0,94,0.00,,,0.00,WUHU216HW,2013-08-23 13:36:00,
2013-08-23 09:41:00,65.7,63.9,29.89,ENE,68,0.0,0.0,94,0.00,,,0.00,WUHU216HW,2013-08-23 13:41:00,
2013-08-23 09:46:00,65.7,63.9,29.89,ENE,68,0.0,0.0,94,0.00,,,0.00,WUHU216HW,2013-08-23 13:46:00,
2013-08-23 09:51:00,65.7,63.9,29.89,ENE,68,0.0,0.0,94,0.00,,,0.00,WUHU216HW,2013-08-23 13:51:00,
2013-08-23 09:56:00,65.9,64.1,29.89,ENE,68,0.4,0.4,94,0.00,,,0.00,WUHU216HW,2013-08-23 13:56:00,
2013-08-23 10:01:00,65.9,64.1,29.89,ENE,68,0.2,0.7,94,0.00,,,0.00,WUHU216HW,2013-08-23 14:01:00,
2013-08-23 10:06:00,66.1,64.3,29.89,ENE,68,0.0,0.7,94,0.00,,,0.00,WUHU216HW,2013-08-23 14:06:00,
2013-08-23 10:11:00,66.1,64.3,29.89,ENE,68,0.0,0.2,94,0.00,,,0.00,WUHU216HW,2013-08-23 14:11:00,
2013-08-23 10:16:00,66.2,64.5,29.89,NNW,338,0.0,1.1,94,0.00,,,0.00,WUHU216HW,2013-08-23 14:16:00,
2013-08-23 10:21:00,66.2,64.7,29.89,NNW,338,0.0,1.1,95,0.00,,,0.00,WUHU216HW,2013-08-23 14:21:00,
2013-08-23 10:26:00,66.4,64.9,29.90,SW,225,0.0,0.2,95,0.00,,,0.00,WUHU216HW,2013-08-23 14:26:00,
2013-08-23 10:31:00,66.4,64.9,29.90,SSW,203,0.0,1.3,95,0.00,,,0.00,WUHU216HW,2013-08-23 14:31:00,
2013-08-23 10:36:00,66.4,64.9,29.89,NNW,338,0.2,1.3,95,0.00,,,0.00,WUHU216HW,2013-08-23 14:36:00,
2013-08-23 10:41:00,66.6,65.1,29.90,WSW,248,0.0,1.1,95,0.00,,,0.00,WUHU216HW,2013-08-23 14:41:00,
2013-08-23 10:47:00,66.6,65.1,29.89,WSW,248,0.0,1.1,95,0.00,,,0.00,WUHU216HW,2013-08-23 14:47:00,
2013-08-23 10:52:00,66.8,65.3,29.90,East,90,0.0,1.3,95,0.00,,,0.00,WUHU216HW,2013-08-23 14:52:00,
2013-08-23 10:57:00,66.8,65.3,29.90,East,90,0.4,1.3,95,0.00,,,0.00,WUHU216HW,2013-08-23 14:57:00,
2013-08-23 11:02:00,66.8,65.3,29.90,East,90,0.0,0.9,95,0.00,,,0.00,WUHU216HW,2013-08-23 15:02:00,
2013-08-23 11:07:00,67.0,65.4,29.90,East,90,0.0,0.4,95,0.00,,,0.00,WUHU216HW,2013-08-23 15:07:00,
2013-08-23 11:12:00,67.1,65.4,29.91,East,90,0.7,0.7,94,0.00,,,0.00,WUHU216HW,2013-08-23 15:12:00,
2013-08-23 11:17:00,67.1,65.4,29.90,NE,45,0.0,1.8,94,0.00,,,0.00,WUHU216HW,2013-08-23 15:17:00,
2013-08-23 11:22:00,67.1,65.6,29.90,West,270,1.6,1.8,95,0.00,,,0.00,WUHU216HW,2013-08-23 15:22:00,
2013-08-23 11:27:00,67.3,65.5,29.90,North,0,1.3,3.1,94,0.00,,,0.00,WUHU216HW,2013-08-23 15:27:00,
2013-08-23 11:32:00,67.7,65.9,29.90,NW,315,0.4,3.1,94,0.00,,,0.00,WUHU216HW,2013-08-23 15:32:00,
2013-08-23 11:37:00,67.9,66.1,29.90,NNW,338,0.4,2.7,94,0.00,,,0.00,WUHU216HW,2013-08-23 15:37:00,
2013-08-23 11:42:00,68.0,66.3,29.89,NNW,338,1.8,1.8,94,0.00,,,0.00,WUHU216HW,2013-08-23 15:42:00,
2013-08-23 11:47:00,68.2,66.1,29.89,North,0,0.0,1.8,93,0.00,,,0.00,WUHU216HW,2013-08-23 15:47:00,
2013-08-23 11:52:00,68.4,66.6,29.89,NE,45,0.7,1.8,94,0.00,,,0.00,WUHU216HW,2013-08-23 15:52:00,
2013-08-23 11:57:00,68.4,66.6,29.89,WNW,293,1.8,1.8,94,0.00,,,0.00,WUHU216HW,2013-08-23 15:57:00,
2013-08-23 12:02:00,68.8,66.6,29.89,SW,225,0.0,1.8,93,0.00,,,0.00,WUHU216HW,2013-08-23 16:02:00,
2013-08-23 12:07:00,68.6,65.8,29.89,WSW,248,0.9,1.8,91,0.00,,,0.00,WUHU216HW,2013-08-23 16:07:00,
2013-08-23 12:12:00,68.8,64.4,29.89,WNW,293,2.5,3.4,86,0.00,,,0.00,WUHU216HW,2013-08-23 16:12:00,
2013-08-23 12:17:00,69.1,64.1,29.89,NNW,338,1.8,4.0,84,0.00,,,0.00,WUHU216HW,2013-08-23 16:17:00,
2013-08-23 12:22:00,69.7,65.6,29.89,SW,225,1.1,4.0,87,0.00,,,0.00,WUHU216HW,2013-08-23 16:22:00,
2013-08-23 12:27:00,69.8,66.1,29.89,NW,315,0.7,1.8,88,0.00,,,0.00,WUHU216HW,2013-08-23 16:27:00,
2013-08-23 12:32:00,70.6,66.5,29.89,SW,225,1.3,1.8,87,0.00,,,0.00,WUHU216HW,2013-08-23 16:32:00,
2013-08-23 12:37:00,70.9,63.7,29.89,NNW,338,2.7,4.3,78,0.00,,,0.00,WUHU216HW,2013-08-23 16:37:00,
2013-08-23 12:42:00,71.3,65.5,29.89,WNW,293,2.2,4.3,82,0.00,,,0.00,WUHU216HW,2013-08-23 16:42:00,
2013-08-23 12:47:00,71.6,63.6,29.89,West,270,3.1,5.4,76,0.00,,,0.00,WUHU216HW,2013-08-23 16:47:00,
2013-08-23 12:52:00,72.0,64.4,29.89,NW,315,2.0,5.4,77,0.00,,,0.00,WUHU216HW,2013-08-23 16:52:00,
2013-08-23 12:57:00,72.9,66.4,29.88,NNW,338,2.0,5.1,80,0.00,,,0.00,WUHU216HW,2013-08-23 16:57:00,
2013-08-23 13:02:00,72.7,65.9,29.89,NNW,338,0.4,4.7,79,0.00,,,0.00,WUHU216HW,2013-08-23 17:02:00,
2013-08-23 13:07:00,72.4,64.7,29.88,NW,315,1.1,3.4,77,0.00,,,0.00,WUHU216HW,2013-08-23 17:07:00,
2013-08-23 13:12:00,71.8,65.7,29.89,NW,315,2.5,4.0,81,0.00,,,0.00,WUHU216HW,2013-08-23 17:12:00,
2013-08-23 13:17:00,72.4,65.5,29.89,NW,315,3.4,4.0,79,0.00,,,0.00,WUHU216HW,2013-08-23 17:17:00,
2013-08-23 13:22:00,73.1,67.0,29.89,NNW,338,0.4,3.6,81,0.00,,,0.00,WUHU216HW,2013-08-23 17:22:00,
2013-08-23 13:27:00,72.9,66.8,29.89,NW,315,1.6,3.4,81,0.00,,,0.00,WUHU216HW,2013-08-23 17:27:00,
2013-08-23 13:32:00,72.7,66.2,29.88,NNW,338,0.4,2.7,80,0.00,,,0.00,WUHU216HW,2013-08-23 17:32:00,
2013-08-23 13:37:00,71.6,64.5,29.88,NNW,338,2.9,2.9,78,0.00,,,0.00,WUHU216HW,2013-08-23 17:37:00,
2013-08-23 13:42:00,71.5,64.3,29.88,WNW,293,2.9,4.0,78,0.00,,,0.00,WUHU216HW,2013-08-23 17:42:00,
2013-08-23 13:47:00,71.6,64.5,29.89,North,0,1.8,4.5,78,0.00,,,0.00,WUHU216HW,2013-08-23 17:47:00,
2013-08-23 13:52:00,72.0,62.9,29.88,WNW,293,3.8,4.9,73,0.00,,,0.00,WUHU216HW,2013-08-23 17:52:00,
2013-08-23 13:57:00,72.7,64.0,29.89,West,270,3.1,5.1,74,0.00,,,0.00,WUHU216HW,2013-08-23 17:57:00,
2013-08-23 14:02:00,73.8,65.1,29.88,NNW,338,1.8,5.1,74,0.00,,,0.00,WUHU216HW,2013-08-23 18:02:00,
2013-08-23 14:07:00,74.5,64.9,29.89,West,270,4.0,4.9,72,0.00,,,0.00,WUHU216HW,2013-08-23 18:07:00,
2013-08-23 14:12:00,74.2,65.0,29.88,NNW,338,2.9,4.9,73,0.00,,,0.00,WUHU216HW,2013-08-23 18:12:00,
2013-08-23 14:17:00,73.6,64.1,29.88,NW,315,4.3,4.3,72,0.00,,,0.00,WUHU216HW,2013-08-23 18:17:00,
2013-08-23 14:22:00,73.4,65.1,29.88,WSW,248,1.1,4.3,75,0.00,,,0.00,WUHU216HW,2013-08-23 18:22:00,
2013-08-23 14:27:00,74.3,65.5,29.88,NW,315,2.9,4.3,74,0.00,,,0.00,WUHU216HW,2013-08-23 18:27:00,
2013-08-23 14:32:00,75.4,66.6,29.88,WNW,293,2.5,4.7,74,0.00,,,0.00,WUHU216HW,2013-08-23 18:32:00,
2013-08-23 14:37:00,75.8,66.2,29.88,WNW,293,4.0,4.7,72,0.00,,,0.00,WUHU216HW,2013-08-23 18:37:00,
2013-08-23 14:42:00,76.0,65.1,29.88,WNW,293,4.3,5.8,69,0.00,,,0.00,WUHU216HW,2013-08-23 18:42:00,
2013-08-23 14:47:00,76.5,65.2,29.87,NNW,338,4.9,6.9,68,0.00,,,0.00,WUHU216HW,2013-08-23 18:47:00,
2013-08-23 14:52:00,76.9,64.6,29.87,NW,315,4.3,6.9,66,0.00,,,0.00,WUHU216HW,2013-08-23 18:52:00,
2013-08-23 14:57:00,76.0,64.2,29.87,NNW,338,3.4,6.5,67,0.00,,,0.00,WUHU216HW,2013-08-23 18:57:00,
2013-08-23 15:02:00,76.0,65.1,29.87,NNW,338,3.4,5.6,69,0.00,,,0.00,WUHU216HW,2013-08-23 19:02:00,
2013-08-23 15:07:00,75.8,64.0,29.87,NW,315,3.8,5.4,67,0.00,,,0.00,WUHU216HW,2013-08-23 19:07:00,
2013-08-23 15:12:00,76.3,64.1,29.87,NNW,338,4.5,6.3,66,0.00,,,0.00,WUHU216HW,2013-08-23 19:12:00,
2013-08-23 15:17:00,76.1,63.9,29.87,NW,315,4.7,6.3,66,0.00,,,0.00,WUHU216HW,2013-08-23 19:17:00,
2013-08-23 15:22:00,76.0,64.2,29.87,NNW,338,4.3,6.5,67,0.00,,,0.00,WUHU216HW,2013-08-23 19:22:00,
2013-08-23 15:27:00,75.4,64.1,29.87,NNW,338,1.8,6.5,68,0.00,,,0.00,WUHU216HW,2013-08-23 19:27:00,
2013-08-23 15:32:00,74.9,64.9,29.87,South,180,0.7,4.9,71,0.00,,,0.00,WUHU216HW,2013-08-23 19:32:00,
2013-08-23 15:37:00,73.8,64.6,29.87,SW,225,1.8,2.0,73,0.00,,,0.00,WUHU216HW,2013-08-23 19:37:00,
2013-08-23 15:42:00,73.1,64.7,29.88,SSE,158,1.8,1.8,75,0.00,,,0.00,WUHU216HW,2013-08-23 19:42:00,
2013-08-23 15:47:00,72.5,65.4,29.88,SSE,158,0.4,2.5,78,0.00,,,0.00,WUHU216HW,2013-08-23 19:47:00,
2013-08-23 15:52:00,72.5,65.4,29.88,NE,45,0.0,2.5,78,0.00,,,0.00,WUHU216HW,2013-08-23 19:52:00,
2013-08-23 15:57:00,72.5,65.7,29.88,SSE,158,1.3,2.0,79,0.00,,,0.00,WUHU216HW,2013-08-23 19:57:00,
2013-08-23 16:02:00,73.1,65.9,29.87,SW,225,0.9,2.5,78,0.00,,,0.00,WUHU216HW,2013-08-23 20:02:00,
2013-08-23 16:07:00,73.6,66.4,29.87,SSE,158,0.7,3.1,78,0.00,,,0.00,WUHU216HW,2013-08-23 20:07:00,
2013-08-23 16:12:00,73.6,66.8,29.88,NW,315,0.4,3.1,79,0.00,,,0.00,WUHU216HW,2013-08-23 20:12:00,
2013-08-23 16:17:00,73.6,66.8,29.88,SW,225,0.7,1.3,79,0.00,,,0.00,WUHU216HW,2013-08-23 20:17:00,
2013-08-23 16:22:00,73.8,67.0,29.88,SSW,203,1.8,3.4,79,0.00,,,0.00,WUHU216HW,2013-08-23 20:22:00,
2013-08-23 16:27:00,73.6,66.0,29.88,East,90,1.1,3.4,77,0.00,,,0.00,WUHU216HW,2013-08-23 20:27:00,
2013-08-23 16:32:00,73.3,65.6,29.88,SSW,203,0.4,2.9,77,0.00,,,0.00,WUHU216HW,2013-08-23 20:32:00,
2013-08-23 16:37:00,72.4,64.7,29.89,SSW,203,2.7,4.3,77,0.00,,,0.00,WUHU216HW,2013-08-23 20:37:00,
2013-08-23 16:42:00,71.6,64.0,29.89,SSE,158,1.8,4.3,77,0.00,,,0.00,WUHU216HW,2013-08-23 20:42:00,
2013-08-23 16:47:00,70.9,64.1,29.89,NNE,23,1.8,2.9,79,0.00,,,0.00,WUHU216HW,2013-08-23 20:47:00,
2013-08-23 16:52:00,70.2,63.7,29.90,WSW,248,0.9,3.6,80,0.00,,,0.00,WUHU216HW,2013-08-23 20:52:00,
2013-08-23 16:57:00,69.8,63.4,29.90,SSW,203,1.1,3.6,80,0.00,,,0.00,WUHU216HW,2013-08-23 20:57:00,
2013-08-23 17:02:00,69.7,63.6,29.90,SE,135,0.4,1.8,81,0.00,,,0.00,WUHU216HW,2013-08-23 21:02:00,
2013-08-23 17:07:00,69.5,63.4,29.90,WSW,248,0.9,1.3,81,0.00,,,0.00,WUHU216HW,2013-08-23 21:07:00,
2013-08-23 17:12:00,69.5,63.4,29.90,East,90,0.2,2.5,81,0.00,,,0.00,WUHU216HW,2013-08-23 21:12:00,
2013-08-23 17:17:00,69.7,63.6,29.90,SSW,203,1.8,2.5,81,0.00,,,0.00,WUHU216HW,2013-08-23 21:17:00,
2013-08-23 17:22:00,69.5,63.4,29.90,NE,45,0.0,2.5,81,0.00,,,0.00,WUHU216HW,2013-08-23 21:22:00,
2013-08-23 17:27:00,69.1,63.1,29.90,WSW,248,0.4,3.4,81,0.00,,,0.00,WUHU216HW,2013-08-23 21:27:00,
2013-08-23 17:32:00,69.1,63.4,29.90,ESE,113,0.2,3.4,82,0.00,,,0.00,WUHU216HW,2013-08-23 21:32:00,
2013-08-23 17:37:00,69.1,63.4,29.90,SSW,203,2.5,2.7,82,0.00,,,0.00,WUHU216HW,2013-08-23 21:37:00,
2013-08-23 17:42:00,68.9,63.2,29.90,SW,225,2.2,2.7,82,0.00,,,0.00,WUHU216HW,2013-08-23 21:42:00,
2013-08-23 17:47:00,68.9,63.2,29.90,West,270,2.5,3.1,82,0.00,,,0.00,WUHU216HW,2013-08-23 21:47:00,
2013-08-23 17:52:00,68.6,62.9,29.90,NW,315,0.4,3.1,82,0.00,,,0.00,WUHU216HW,2013-08-23 21:52:00,
2013-08-23 17:57:00,68.4,62.7,29.90,WSW,248,0.0,2.5,82,0.00,,,0.00,WUHU216HW,2013-08-23 21:57:00,
2013-08-23 18:02:00,68.2,62.6,29.91,North,0,0.0,1.8,82,0.00,,,0.00,WUHU216HW,2013-08-23 22:02:00,
2013-08-23 18:07:00,68.0,62.4,29.91,SW,225,0.7,1.1,82,0.00,,,0.00,WUHU216HW,2013-08-23 22:07:00,
2013-08-23 18:12:00,68.0,62.7,29.91,West,270,0.0,1.1,83,0.00,,,0.00,WUHU216HW,2013-08-23 22:12:00,
2013-08-23 18:17:00,67.9,62.6,29.91,SW,225,0.9,0.9,83,0.00,,,0.00,WUHU216HW,2013-08-23 22:17:00,
2013-08-23 18:22:00,67.9,62.8,29.91,SW,225,0.9,1.8,84,0.00,,,0.00,WUHU216HW,2013-08-23 22:22:00,
2013-08-23 18:27:00,67.9,62.8,29.91,SW,225,1.8,1.8,84,0.00,,,0.00,WUHU216HW,2013-08-23 22:27:00,
2013-08-23 18:32:00,68.0,63.0,29.91,SW,225,0.9,1.8,84,0.00,,,0.00,WUHU216HW,2013-08-23 22:32:00,
2013-08-23 18:37:00,68.0,63.0,29.91,SSE,158,0.2,1.8,84,0.00,,,0.00,WUHU216HW,2013-08-23 22:37:00,
2013-08-23 18:42:00,67.9,62.8,29.91,NE,45,0.0,1.1,84,0.00,,,0.00,WUHU216HW,2013-08-23 22:42:00,
2013-08-23 18:47:00,67.7,62.6,29.91,SW,225,0.4,0.7,84,0.00,,,0.00,WUHU216HW,2013-08-23 22:47:00,
2013-08-23 18:52:00,67.7,62.6,29.91,West,270,0.7,1.8,84,0.00,,,0.00,WUHU216HW,2013-08-23 22:52:00,
2013-08-23 18:57:00,67.7,62.6,29.91,WNW,293,0.0,1.8,84,0.00,,,0.00,WUHU216HW,2013-08-23 22:57:00,
2013-08-23 19:02:00,67.9,62.8,29.91,NW,315,0.4,1.1,84,0.00,,,0.00,WUHU216HW,2013-08-23 23:02:00,
2013-08-23 19:07:00,67.7,62.6,29.91,NNW,338,1.1,1.3,84,0.00,,,0.00,WUHU216HW,2013-08-23 23:07:00,
2013-08-23 19:12:00,67.7,62.6,29.91,West,270,0.2,1.3,84,0.00,,,0.00,WUHU216HW,2013-08-23 23:12:00,
2013-08-23 19:17:00,67.5,62.2,29.91,West,270,0.0,1.3,83,0.00,,,0.00,WUHU216HW,2013-08-23 23:17:00,
2013-08-23 19:22:00,67.3,62.3,29.92,SSW,203,0.0,0.4,84,0.00,,,0.00,WUHU216HW,2013-08-23 23:22:00,
2013-08-23 19:27:00,67.1,62.1,29.92,SSW,203,0.0,0.4,84,0.00,,,0.00,WUHU216HW,2013-08-23 23:27:00,
2013-08-23 19:32:00,67.0,61.9,29.92,SSW,203,0.0,0.0,84,0.00,,,0.00,WUHU216HW,2013-08-23 23:32:00,
2013-08-23 19:37:00,66.8,61.7,29.92,SSW,203,0.0,0.0,84,0.00,,,0.00,WUHU216HW,2013-08-23 23:37:00,
2013-08-23 19:42:00,66.6,61.6,29.92,SSW,203,0.0,0.0,84,0.00,,,0.00,WUHU216HW,2013-08-23 23:42:00,
2013-08-23 19:47:00,66.6,61.6,29.92,SSW,203,0.0,0.0,84,0.00,,,0.00,WUHU216HW,2013-08-23 23:47:00,
2013-08-23 19:52:00,66.2,61.2,29.93,SSW,203,0.0,0.0,84,0.00,,,0.00,WUHU216HW,2013-08-23 23:52:00,
2013-08-23 19:57:00,66.1,61.0,29.93,SSW,203,0.0,0.0,84,0.00,,,0.00,WUHU216HW,2013-08-23 23:57:00,
2013-08-23 20:02:00,65.9,60.9,29.93,SSW,203,0.0,0.0,84,0.00,,,0.00,WUHU216HW,2013-08-24 00:02:00,
2013-08-23 20:07:00,65.5,60.8,29.94,SSW,203,0.0,0.0,85,0.00,,,0.00,WUHU216HW,2013-08-24 00:07:00,
2013-08-23 20:12:00,65.2,60.6,29.94,SSW,203,0.0,0.0,85,0.00,,,0.00,WUHU216HW,2013-08-24 00:12:00,
2013-08-23 20:17:00,65.2,60.6,29.94,South,180,0.0,0.0,85,0.00,,,0.00,WUHU216HW,2013-08-24 00:17:00,
2013-08-23 20:22:00,65.0,60.7,29.94,South,180,0.0,0.0,86,0.00,,,0.00,WUHU216HW,2013-08-24 00:22:00,
2013-08-23 20:27:00,64.8,60.2,29.95,SSW,203,0.0,0.0,85,0.00,,,0.00,WUHU216HW,2013-08-24 00:27:00,
2013-08-23 20:32:00,64.4,59.9,29.95,NW,315,0.0,0.0,85,0.00,,,0.00,WUHU216HW,2013-08-24 00:32:00,
2013-08-23 20:37:00,64.4,59.9,29.95,NW,315,0.0,0.0,85,0.00,,,0.00,WUHU216HW,2013-08-24 00:37:00,
2013-08-23 20:42:00,64.3,59.7,29.95,NW,315,0.0,0.0,85,0.00,,,0.00,WUHU216HW,2013-08-24 00:42:00,
2013-08-23 20:47:00,64.1,59.5,29.96,NW,315,0.0,0.0,85,0.00,,,0.00,WUHU216HW,2013-08-24 00:47:00,
2013-08-23 20:52:00,63.9,59.7,29.96,NW,315,0.0,0.0,86,0.00,,,0.00,WUHU216HW,2013-08-24 00:52:00,
2013-08-23 20:57:00,63.7,59.5,29.96,NW,315,0.0,0.0,86,0.00,,,0.00,WUHU216HW,2013-08-24 00:57:00,
2013-08-23 21:02:00,63.5,59.3,29.96,NW,315,0.0,0.0,86,0.00,,,0.00,WUHU216HW,2013-08-24 01:02:00,
2013-08-23 21:07:00,63.4,59.5,29.97,NW,315,0.0,0.7,87,0.00,,,0.00,WUHU216HW,2013-08-24 01:07:00,
2013-08-23 21:12:00,63.0,59.1,29.97,NW,315,0.0,0.7,87,0.00,,,0.00,WUHU216HW,2013-08-24 01:12:00,
2013-08-23 21:17:00,63.0,59.1,29.97,NW,315,0.0,0.0,87,0.00,,,0.00,WUHU216HW,2013-08-24 01:17:00,
2013-08-23 21:22:00,62.6,58.8,29.97,NW,315,0.0,0.0,87,0.00,,,0.00,WUHU216HW,2013-08-24 01:22:00,
2013-08-23 21:27:00,62.5,58.6,29.97,NW,315,0.0,0.0,87,0.00,,,0.00,WUHU216HW,2013-08-24 01:27:00,
2013-08-23 21:32:00,62.3,58.4,29.97,NW,315,0.0,0.0,87,0.00,,,0.00,WUHU216HW,2013-08-24 01:32:00,
2013-08-23 21:37:00,62.3,58.7,29.97,NW,315,0.0,0.0,88,0.00,,,0.00,WUHU216HW,2013-08-24 01:37:00,
2013-08-23 21:42:00,62.3,58.7,29.98,NW,315,0.0,0.0,88,0.00,,,0.00,WUHU216HW,2013-08-24 01:42:00,
2013-08-23 21:47:00,62.1,58.6,29.98,NW,315,0.0,0.0,88,0.00,,,0.00,WUHU216HW,2013-08-24 01:47:00,
2013-08-23 21:52:00,61.9,58.4,29.98,NW,315,0.0,0.0,88,0.00,,,0.00,WUHU216HW,2013-08-24 01:52:00,
2013-08-23 21:57:00,61.9,58.4,29.98,NW,315,0.0,0.0,88,0.00,,,0.00,WUHU216HW,2013-08-24 01:57:00,
2013-08-23 22:02:00,61.7,58.2,29.98,NW,315,0.0,0.0,88,0.00,,,0.00,WUHU216HW,2013-08-24 02:02:00,
2013-08-23 22:07:00,61.6,58.1,29.98,NW,315,0.0,0.0,88,0.00,,,0.00,WUHU216HW,2013-08-24 02:07:00,
2013-08-23 22:12:00,61.6,58.1,29.98,NW,315,0.0,0.0,88,0.00,,,0.00,WUHU216HW,2013-08-24 02:12:00,
2013-08-23 22:17:00,61.2,57.7,29.98,NW,315,0.0,0.0,88,0.00,,,0.00,WUHU216HW,2013-08-24 02:17:00,
2013-08-23 22:22:00,61.0,57.8,29.98,NW,315,0.0,0.0,89,0.00,,,0.00,WUHU216HW,2013-08-24 02:22:00,
2013-08-23 22:27:00,60.8,57.6,29.98,SSW,203,0.2,0.7,89,0.00,,,0.00,WUHU216HW,2013-08-24 02:27:00,
2013-08-23 22:32:00,60.8,57.6,29.98,South,180,0.0,0.7,89,0.00,,,0.00,WUHU216HW,2013-08-24 02:32:00,
2013-08-23 22:37:00,60.8,57.6,29.98,SW,225,0.0,0.7,89,0.00,,,0.00,WUHU216HW,2013-08-24 02:37:00,
2013-08-23 22:42:00,60.8,57.6,29.99,SW,225,0.2,0.7,89,0.00,,,0.00,WUHU216HW,2013-08-24 02:42:00,
2013-08-23 22:47:00,60.8,58.0,29.98,SW,225,0.0,0.7,90,0.00,,,0.00,WUHU216HW,2013-08-24 02:47:00,
2013-08-23 22:52:00,60.8,58.0,29.99,South,180,0.2,0.7,90,0.00,,,0.00,WUHU216HW,2013-08-24 02:52:00,
2013-08-23 22:57:00,60.8,58.0,29.99,SW,225,0.2,0.7,90,0.00,,,0.00,WUHU216HW,2013-08-24 02:57:00,
2013-08-23 23:02:00,60.8,58.0,29.99,SW,225,0.4,0.7,90,0.00,,,0.00,WUHU216HW,2013-08-24 03:02:00,
2013-08-23 23:07:00,60.8,58.0,29.99,SW,225,0.0,0.7,90,0.00,,,0.00,WUHU216HW,2013-08-24 03:07:00,
2013-08-23 23:12:00,60.7,57.8,29.99,SW,225,0.0,0.2,90,0.00,,,0.00,WUHU216HW,2013-08-24 03:12:00,
2013-08-23 23:17:00,60.7,57.8,29.99,SW,225,0.0,0.0,90,0.00,,,0.00,WUHU216HW,2013-08-24 03:17:00,
2013-08-23 23:22:00,60.7,57.8,29.99,SW,225,0.0,0.0,90,0.00,,,0.00,WUHU216HW,2013-08-24 03:22:00,
2013-08-23 23:27:00,60.5,57.6,29.99,SW,225,0.0,0.0,90,0.00,,,0.00,WUHU216HW,2013-08-24 03:27:00,
2013-08-23 23:32:00,60.5,57.6,29.99,West,270,0.0,1.6,90,0.00,,,0.00,WUHU216HW,2013-08-24 03:32:00,
2013-08-23 23:37:00,60.3,57.4,29.99,WSW,248,0.0,1.6,90,0.00,,,0.00,WUHU216HW,2013-08-24 03:37:00,
2013-08-23 23:42:00,60.3,57.4,29.99,WSW,248,0.0,0.4,90,0.00,,,0.00,WUHU216HW,2013-08-24 03:42:00,
2013-08-23 23:47:00,60.3,57.4,29.99,WSW,248,0.0,0.0,90,0.00,,,0.00,WUHU216HW,2013-08-24 03:47:00,
2013-08-23 23:52:00,60.1,57.2,29.99,WSW,248,0.0,0.0,90,0.00,,,0.00,WUHU216HW,2013-08-24 03:52:00,
2013-08-23 23:57:00,59.9,57.1,29.99,WSW,248,0.0,0.0,90,0.00,,,0.00,WUHU216HW,2013-08-24 03:57:00,